Wind_Speed
13 14 15 15 16 16 17 18 18 19 20 21 21 21 22 23 23 23 23 24 25 25 25 26 26 27 27 28 29 30 30 30 30 31 32 33 33 33
14 15 16 16 17 18 19 19 20 20 21 22 23 23 24 23 23 24 25 25 26 26 27 28 28 28 28 28 29 29 30 32 32 32 33 34 35 35
15 16 16 18 18 19 20 20 21 22 22 22 23 24 25 25 25 26 27 27 27 28 29 30 30 30 31 30 31 32 32 33 34 34 35 36 37 38
15 16 17 18 19 20 21 21 22 22 22 23 24 25 26 27 27 28 28 28 29 30 31 31 32 32 33 33 33 34 34 35 35 35 36 37 38 39
16 16 17 18 19 20 21 22 22 23 23 25 26 26 27 28 28 28 28 28 30 31 31 31 32 32 33 33 34 34 35 35 36 37 38 38 39 40
16 17 17 18 19 20 21 22 23 24 24 25 26 26 27 27 27 27 27 28 29 30 31 31 32 32 33 34 34 35 36 37 37 38 38 39 40 40
18 18 19 20 21 22 23 23 24 24 24 25 25 26 26 26 26 27 28 29 30 31 32 32 33 33 34 35 35 36 37 37 38 38 39 39 40 40
18 19 19 20 22 23 23 24 24 24 24 25 25 25 26 26 27 28 29 30 30 30 31 33 34 34 35 35 35 36 37 37 37 38 38 38 39 39
19 20 21 21 22 23 23 24 24 24 25 26 26 27 28 28 29 29 30 31 31 31 32 32 33 33 34 35 36 36 37 37 37 37 37 38 38 39
20 21 21 22 23 23 23 24 24 25 26 27 28 28 28 29 29 29 30 31 31 32 32 32 33 33 34 35 35 35 35 35 36 36 36 37 37 37
21 22 22 23 23 23 24 25 25 25 26 27 28 28 28 28 28 28 29 30 31 31 32 32 33 34 34 34 34 33 33 33 34 34 34 34 35 36
23 23 24 24 24 24 24 25 25 26 28 28 28 27 27 28 28 29 30 30 30 31 31 32 32 33 33 33 32 32 32 33 33 33 33 33 34 34
24 25 25 25 25 25 26 26 27 27 28 28 28 28 28 28 29 29 30 30 30 30 30 30 31 31 31 31 31 31 31 32 32 32 32 32 33 33
25 25 26 26 26 26 26 27 27 28 29 29 28 28 28 28 29 29 29 29 29 29 29 29 29 29 29 29 30 30 30 31 31 31 31 32 32 32
26 27 27 27 27 28 27 28 28 29 29 29 28 28 28 28 29 29 29 29 29 29 29 29 29 29 29 29 30 30 30 30 30 30 30 31 31 30
27 27 28 28 28 29 28 28 29 30 29 29 29 29 29 29 28 29 29 29 29 29 29 29 29 29 29 29 29 29 30 30 29 29 29 29 29 30
28 28 29 29 29 29 28 28 28 29 29 29 29 29 29 29 29 29 29 29 29 29 29 29 29 29 29 29 29 29 29 28 28 29 29 29 30 30
29 29 29 29 28 28 28 28 29 29 29 29 29 29 29 29 29 29 29 29 28 28 28 28 28 28 28 27 28 28 28 27 28 28 28 28 28 28
29 29 29 28 28 28 28 28 28 29 29 29 29 29 29 29 29 28 28 28 28 28 28 28 28 28 27 27 27 27 27 27 27 27 26 26 26 26
29 29 29 28 28 28 28 28 29 29 29 28 28 28 28 28 28 28 28 28 28 28 28 28 27 27 27 27 27 27 27 26 26 26 25 25 25 25
29 28 28 28 28 27 28 28 29 28 28 28 28 28 29 29 29 28 28 28 28 28 28 28 27 27 27 27 27 26 26 25 25 25 25 25 25 25
28 28 28 28 28 27 28 28 29 28 28 28 28 29 29 28 28 28 28 28 27 28 28 28 28 27 27 27 26 26 26 26 25 25 25 25 25 25
29 28 28 28 28 28 28 29 28 27 28 28 28 28 28 28 28 27 27 28 28 28 29 28 28 27 27 26 26 26 26 26 26 26 26 25 25 25
Wind_Direction
293 295 294 293 293 290 288 287 286 287 288 287 287 287 285 284 284 283 284 283 283 284 284 284 285 285 283 282 281 281 280 280 280 279 276 274 273 273
294 295 295 295 293 291 289 288 287 287 289 290 289 288 287 286 285 285 285 284 284 284 285 286 286 285 284 281 281 281 282 281 282 280 278 277 275 274
293 292 292 293 292 294 291 289 290 289 288 289 290 288 288 287 287 286 288 286 284 284 284 285 285 285 284 283 283 282 283 283 283 281 280 279 276 276
295 294 293 294 294 293 293 292 292 291 289 289 288 287 287 288 288 287 287 287 287 287 286 285 284 285 285 285 285 285 284 284 283 281 280 279 278 276
297 296 296 296 297 296 295 295 294 292 290 290 290 289 287 288 288 289 289 288 287 288 289 287 287 288 288 286 285 284 284 284 283 282 281 280 279 278
299 299 299 297 297 297 297 296 296 296 294 293 292 292 292 292 293 292 290 291 291 290 290 291 291 290 290 288 286 285 285 284 284 283 283 282 281 280
299 299 299 299 298 299 299 299 299 298 297 297 296 296 294 294 293 292 292 292 291 292 294 293 292 291 290 289 287 286 286 286 286 284 283 282 281 280
303 302 301 302 302 302 302 301 300 299 298 299 298 297 296 295 293 294 294 294 295 295 294 293 292 292 292 291 290 288 287 287 286 286 285 284 283 282
303 302 302 302 303 303 303 303 302 300 300 300 298 297 297 296 296 296 296 296 296 296 296 296 296 295 295 294 293 292 291 289 288 287 286 285 285 284
305 305 305 305 305 305 305 304 303 302 301 301 299 298 297 297 298 298 298 298 298 298 298 298 298 298 298 297 295 294 292 292 291 290 289 288 287 286
307 307 307 306 306 306 305 305 304 304 303 302 301 300 300 300 300 300 300 301 301 300 300 299 300 300 300 299 297 296 295 295 294 293 292 291 290 290
305 305 305 306 306 305 305 306 305 305 304 303 303 302 301 301 301 301 302 302 303 302 301 301 301 301 301 300 299 298 296 296 295 294 293 292 291 291
303 304 304 305 306 306 306 306 306 306 305 305 303 302 303 302 302 302 302 303 304 304 304 304 303 303 303 302 300 299 298 298 297 297 295 294 292 291
304 303 304 305 305 306 306 307 307 307 306 304 303 303 303 303 303 303 303 304 305 306 306 306 306 305 304 303 302 301 300 300 300 299 298 296 294 293
304 305 305 305 306 306 305 305 306 307 307 306 304 304 304 304 303 304 305 305 305 305 305 306 306 305 304 303 302 302 302 302 301 301 300 299 298 295
304 304 305 304 304 305 305 305 305 306 307 307 306 305 305 305 305 306 307 307 307 306 306 306 306 306 305 304 303 303 302 302 302 301 301 300 299 298
304 304 304 304 304 305 305 305 306 306 306 307 307 306 306 306 307 307 307 307 307 307 307 307 307 306 305 305 305 304 304 304 303 302 301 300 300 300
304 305 305 305 305 305 305 306 306 307 307 307 307 307 307 307 307 307 307 307 308 308 308 309 308 308 307 306 306 306 305 305 304 304 304 304 303 302
304 305 305 305 305 305 305 306 306 307 307 307 307 307 307 308 308 308 308 308 309 309 310 309 309 309 309 308 308 308 307 306 306 306 306 306 306 305
304 305 304 304 304 305 305 306 306 307 307 307 308 309 309 309 309 308 309 309 309 310 310 310 310 309 309 308 309 308 308 307 307 307 307 307 307 307
304 304 304 303 304 304 305 305 306 307 308 308 309 309 309 309 309 309 309 309 309 310 311 311 311 310 309 308 308 309 308 308 308 308 308 308 308 307
303 304 304 303 303 303 303 305 306 307 308 308 309 310 310 310 309 309 310 310 311 311 312 311 311 310 309 308 308 308 308 308 308 308 308 308 308 308
302 302 302 303 303 303 304 305 306 307 308 309 310 311 311 310 310 309 309 310 310 311 311 311 310 310 310 309 308 307 307 307 307 308 308 307 307 307
Height
5885 5884 5882 5881 5880 5879 5878 5877 5876 5874 5873 5871 5869 5867 5866 5864 5863 5861 5860 5859 5857 5856 5854 5853 5851 5850 5848 5847 5845 5844 5843 5841 5840 5838 5837 5836 5835 5834
5881 5880 5879 5877 5876 5875 5873 5872 5870 5869 5868 5866 5864 5862 5860 5858 5857 5856 5854 5852 5851 5849 5847 5846 5844 5842 5841 5839 5837 5836 5834 5833 5831 5830 5828 5827 5826 5825
5877 5876 5875 5874 5872 5870 5868 5867 5865 5864 5862 5860 5858 5856 5854 5852 5851 5849 5847 5845 5843 5842 5840 5838 5836 5834 5833 5831 5829 5827 5826 5824 5822 5821 5819 5817 5816 5815
5874 5872 5871 5869 5868 5866 5864 5862 5860 5858 5856 5854 5852 5850 5848 5846 5844 5842 5840 5838 5836 5834 5832 5830 5828 5826 5824 5822 5820 5818 5816 5814 5813 5811 5809 5808 5806 5804
5870 5868 5866 5865 5863 5861 5859 5856 5854 5852 5850 5848 5846 5844 5841 5839 5837 5835 5832 5830 5828 5826 5824 5822 5819 5817 5815 5813 5811 5809 5807 5805 5803 5801 5799 5797 5795 5792
5866 5864 5862 5860 5858 5856 5853 5851 5849 5846 5844 5842 5839 5837 5835 5832 5830 5827 5825 5823 5821 5818 5816 5813 5811 5808 5806 5803 5801 5799 5797 5794 5792 5790 5787 5785 5783 5781
5862 5860 5858 5855 5853 5851 5848 5846 5843 5840 5838 5835 5833 5831 5828 5826 5823 5820 5818 5815 5813 5810 5807 5805 5802 5800 5797 5794 5791 5788 5786 5783 5781 5779 5776 5774 5772 5769
5857 5855 5853 5851 5848 5845 5842 5840 5837 5834 5832 5829 5827 5824 5822 5819 5816 5813 5810 5808 5805 5803 5799 5797 5793 5790 5787 5784 5781 5778 5775 5772 5770 5767 5765 5762 5760 5758
5853 5851 5848 5846 5843 5840 5837 5834 5831 5828 5826 5823 5820 5818 5815 5812 5809 5806 5803 5800 5797 5794 5791 5788 5784 5781 5777 5774 5771 5767 5765 5762 5759 5756 5753 5751 5748 5746
5848 5845 5843 5840 5837 5834 5831 5828 5825 5822 5819 5816 5814 5811 5807 5804 5801 5798 5795 5792 5789 5785 5782 5779 5775 5772 5768 5765 5761 5758 5754 5751 5748 5745 5742 5739 5737 5734
5843 5840 5837 5835 5831 5828 5825 5822 5819 5816 5812 5809 5806 5803 5800 5797 5793 5791 5787 5784 5781 5777 5773 5770 5766 5762 5759 5755 5751 5748 5745 5741 5738 5735 5732 5729 5726 5723
5838 5835 5832 5829 5826 5822 5819 5816 5813 5809 5806 5802 5799 5796 5792 5789 5786 5783 5779 5776 5772 5768 5764 5761 5757 5753 5749 5746 5742 5738 5735 5732 5729 5725 5722 5719 5716 5713
5832 5829 5826 5823 5820 5816 5813 5809 5806 5802 5799 5795 5792 5788 5785 5782 5778 5774 5771 5767 5764 5760 5756 5752 5748 5744 5740 5737 5733 5730 5726 5723 5719 5716 5712 5709 5706 5703
5826 5823 5819 5816 5813 5810 5806 5803 5799 5795 5791 5788 5784 5780 5777 5774 5770 5767 5763 5759 5755 5752 5748 5744 5740 5736 5732 5729 5725 5721 5718 5714 5710 5706 5703 5699 5696 5693
5820 5816 5813 5810 5806 5803 5799 5796 5792 5788 5784 5780 5777 5773 5770 5766 5763 5759 5755 5752 5748 5744 5740 5736 5732 5728 5725 5721 5717 5713 5710 5706 5702 5698 5694 5691 5688 5684
5813 5809 5806 5803 5799 5796 5792 5788 5785 5781 5777 5773 5769 5766 5762 5758 5755 5751 5748 5744 5740 5736 5732 5728 5724 5721 5717 5713 5709 5705 5702 5698 5694 5690 5686 5683 5679 5676
5806 5802 5799 5795 5792 5788 5785 5781 5777 5774 5770 5766 5762 5758 5755 5751 5747 5743 5740 5736 5732 5728 5724 5720 5716 5713 5709 5705 5701 5697 5694 5690 5686 5682 5679 5675 5672 5668
5798 5795 5791 5788 5784 5781 5777 5774 5770 5766 5762 5759 5755 5751 5747 5743 5740 5736 5732 5728 5724 5720 5717 5713 5709 5705 5701 5698 5694 5690 5686 5682 5679 5675 5671 5668 5664 5661
5791 5787 5784 5780 5777 5773 5770 5766 5762 5759 5755 5751 5747 5743 5740 5736 5732 5728 5724 5721 5717 5713 5709 5705 5701 5697 5694 5690 5686 5683 5679 5675 5671 5668 5664 5661 5657 5654
5783 5780 5776 5773 5769 5766 5762 5759 5755 5751 5747 5744 5740 5736 5732 5729 5725 5721 5717 5713 5710 5706 5702 5698 5694 5690 5686 5683 5679 5675 5672 5668 5664 5661 5657 5654 5651 5647
5776 5772 5769 5765 5762 5758 5755 5751 5748 5744 5740 5736 5733 5729 5725 5721 5718 5714 5710 5706 5702 5698 5695 5691 5687 5683 5679 5675 5672 5668 5665 5661 5658 5654 5651 5648 5644 5641
5768 5765 5761 5758 5755 5751 5747 5744 5740 5737 5733 5730 5726 5722 5718 5714 5710 5707 5703 5699 5695 5691 5687 5684 5680 5676 5672 5668 5664 5661 5658 5654 5651 5648 5644 5641 5638 5634
5760 5757 5754 5750 5747 5743 5740 5736 5733 5729 5726 5722 5719 5715 5711 5707 5703 5699 5696 5692 5688 5684 5680 5676 5672 5669 5665 5661 5657 5654 5651 5647 5644 5641 5638 5634 5631 5628